Dewpoint
62 64 64 67 65 64 60 60 61 62 63 63 63 63 63 65 67 68 68 69 69 69 70 70 69 70 71 71 71 71 71 71 71 71 71 71 71 71 72 72 72 73 73 73 73 73 73 74 74 75 76 76 76 76 76 76 76 76 76 77 75 76 75
61 62 64 67 66 66 66 63 61 62 63 63 63 64 63 65 66 67 68 69 69 69 69 70 70 69 70 71 71 71 71 71 72 72 71 72 72 72 72 72 72 72 73 73 74 74 74 74 74 75 75 76 76 76 76 76 76 76 76 76 76 76 75
62 61 63 65 65 65 67 67 65 62 62 63 63 63 63 65 66 67 68 69 69 69 69 70 70 69 70 70 71 70 71 71 71 72 71 70 71 71 72 72 72 72 73 73 74 73 74 74 75 75 75 75 75 76 76 75 76 75 76 76 76 76 75
63 62 63 63 64 66 66 66 68 66 63 63 63 63 64 65 66 67 68 69 68 68 69 69 70 69 69 70 70 71 71 71 71 71 71 71 71 72 72 73 73 73 73 73 74 74 73 74 74 75 76 75 75 75 76 76 75 75 75 76 76 76 76
66 66 65 65 66 66 66 66 68 70 69 64 64 65 65 65 66 67 67 68 69 68 68 69 69 69 70 70 70 70 71 71 71 71 72 71 72 72 72 72 73 73 73 73 74 75 75 75 74 74 75 75 75 75 76 76 75 76 76 76 76 76 76
66 66 66 66 67 67 67 67 68 69 69 67 64 64 64 64 66 66 67 68 69 69 69 69 69 70 69 70 70 70 71 71 72 72 72 72 72 72 72 72 73 73 73 73 74 74 74 74 74 74 74 74 74 74 75 75 75 75 76 76 76 76 76
66 66 66 66 67 67 68 68 68 68 70 71 68 65 65 64 65 66 66 67 68 69 69 69 69 69 69 70 70 70 70 70 71 72 72 72 72 72 72 73 73 73 73 74 74 74 74 74 74 74 74 74 75 74 75 75 75 76 76 76 76 76 76
64 65 65 65 66 67 67 69 69 70 70 71 70 69 65 64 66 66 66 67 68 69 69 69 69 69 69 70 70 70 70 70 70 71 72 72 72 72 72 73 73 74 74 73 74 74 73 74 73 74 74 74 74 75 74 75 75 75 76 76 76 75 75
63 63 64 64 64 65 66 66 68 70 70 70 70 70 69 68 67 67 68 69 70 69 69 70 70 70 70 70 71 71 70 70 71 71 71 71 71 72 72 72 73 73 73 73 73 74 74 73 73 74 74 74 74 75 74 75 75 75 75 76 75 75 75
61 62 62 62 63 63 64 66 67 69 70 69 69 70 70 70 69 69 69 70 70 70 70 71 71 72 72 71 71 71 71 71 71 71 71 71 71 71 71 71 72 73 73 73 73 73 74 74 74 74 74 73 74 74 74 74 75 75 75 75 75 75 75
59 60 61 61 61 62 63 64 65 67 69 68 68 69 70 70 70 70 70 70 70 70 72 72 73 72 72 72 72 72 71 71 71 71 71 71 71 70 71 70 70 71 72 72 72 72 73 74 74 74 74 73 73 74 74 74 74 74 74 75 75 75 75
59 59 60 60 60 61 62 63 64 65 68 68 68 68 69 70 70 71 70 71 71 71 71 71 72 72 72 73 73 72 72 72 72 72 72 71 71 70 70 70 70 70 71 71 71 71 71 72 73 73 74 74 74 74 74 74 74 74 74 74 74 75 75
58 59 59 59 60 60 61 62 63 65 66 68 68 68 69 70 70 71 71 71 72 71 71 71 71 71 72 72 72 72 72 72 72 73 73 72 71 71 71 70 70 69 69 70 70 70 70 70 72 73 73 73 73 73 74 74 74 74 74 74 74 74 75
59 58 59 59 59 60 61 62 63 64 66 68 69 69 69 70 71 70 70 71 71 71 71 71 71 71 71 72 72 72 72 72 73 73 73 73 73 72 71 71 70 70 70 70 70 69 69 69 70 71 73 73 73 73 74 74 73 74 74 74 74 74 74
56 57 58 58 59 60 61 62 63 64 65 66 68 69 69 70 70 70 71 71 71 71 71 71 71 71 70 71 71 72 71 70 69 70 71 73 72 72 71 71 71 70 70 70 69 69 69 69 69 70 72 72 73 73 73 73 73 73 73 73 74 73 73
56 56 56 57 58 59 60 61 62 63 64 65 66 68 69 69 70 70 70 70 71 71 71 71 71 70 70 70 71 71 70 70 70 69 69 70 70 71 71 70 71 71 71 71 70 70 70 69 69 69 70 71 72 72 72 72 72 73 70 71 73 73 72
55 55 55 56 58 59 61 61 62 63 64 64 65 66 67 68 69 69 69 70 70 70 71 71 70 71 71 71 71 71 70 69 69 70 69 69 69 69 70 71 71 72 71 72 72 72 72 70 68 67 68 69 70 71 71 71 71 70 66 66 68 73 73
53 54 55 56 58 58 59 61 62 62 63 63 64 65 66 66 66 67 68 68 69 69 70 70 70 70 70 70 71 70 70 70 70 70 70 69 69 69 70 71 72 72 72 71 71 72 72 71 70 69 67 67 68 69 70 70 70 66 65 65 65 69 73
52 53 53 54 55 57 59 61 61 61 61 61 63 64 65 65 65 65 66 66 67 68 68 69 69 68 69 69 70 70 70 70 70 70 70 70 70 70 71 72 72 71 70 70 72 72 72 72 71 70 69 67 68 68 69 69 68 64 64 64 64 64 70
49 49 49 50 53 56 55 59 60 59 60 60 60 62 62 63 63 63 63 63 63 64 64 65 66 66 67 67 68 69 70 70 71 70 70 71 71 71 71 70 70 70 71 72 71 70 73 73 72 72 72 71 69 69 69 69 67 65 63 62 62 62 66
47 49 48 49 50 51 54 55 56 55 56 58 59 58 56 55 56 58 59 59 60 60 61 61 62 63 64 65 65 66 67 68 69 70 70 70 70 70 69 69 69 69 69 69 70 71 72 73 73 73 72 72 72 72 70 66 60 60 60 60 60 61 64
47 47 48 49 49 51 52 52 54 54 55 57 55 55 55 54 55 56 57 58 59 60 60 60 60 61 62 62 63 64 66 66 66 67 68 68 69 69 68 69 69 70 70 70 70 70 72 72 71 71 71 71 72 72 71 68 59 58 58 58 58 60 66
47 48 48 48 49 51 53 54 54 55 55 54 54 55 56 56 55 55 55 56 57 58 58 59 58 59 59 60 61 62 63 63 64 65 66 66 65 65 67 68 69 70 71 70 70 71 71 71 71 71 71 71 71 72 71 70 62 58 57 57 59 64 67
47 47 48 49 51 51 53 54 54 56 55 55 55 55 54 54 54 55 55 55 56 57 57 58 58 59 58 58 59 61 62 62 62 62 63 63 65 66 65 66 68 69 70 70 71 71 71 72 72 71 72 72 73 72 71 71 66 59 58 58 58 64 68
46 47 50 50 50 51 52 54 55 55 55 54 54 55 54 54 54 54 55 55 55 55 56 57 57 58 58 58 57 59 60 61 62 61 61 62 63 64 66 67 66 66 68 69 68 68 70 71 71 71 71 72 73 72 71 71 69 59 57 57 56 64 69
47 48 49 50 51 52 54 55 54 53 53 53 54 54 53 54 56 57 55 55 55 55 56 57 57 56 56 56 57 58 59 60 61 61 61 60 62 63 64 64 65 67 68 67 66 67 68 71 70 69 71 72 71 68 65 66 65 62 55 54 56 57 68
47 48 49 50 52 54 51 51 52 52 53 54 55 54 54 54 54 55 56 55 55 56 56 56 56 56 56 56 56 57 58 58 59 59 59 59 60 60 60 62 63 64 65 68 68 68 67 69 69 69 70 70 69 66 65 64 64 64 54 53 55 56 63
48 50 52 55 54 52 50 50 51 51 51 53 54 54 54 54 55 55 55 54 55 56 56 55 55 55 55 56 57 57 56 57 58 58 59 59 58 58 57 58 59 60 63 66 67 67 67 67 68 68 69 69 66 64 64 65 64 66 62 58 56 55 58
49 50 49 50 51 53 50 50 50 50 51 51 52 54 54 53 54 54 53 54 55 56 56 55 54 54 55 56 56 57 56 56 56 56 57 58 57 56 56 57 57 58 60 60 61 62 62 63 66 68 68 67 65 64 64 64 66 63 65 59 54 54 53
49 49 49 50 50 51 52 50 50 50 50 51 52 52 53 53 53 53 52 53 55 55 55 54 54 54 54 56 55 55 56 55 56 56 56 57 57 57 56 57 57 58 58 59 59 59 60 61 61 62 65 67 66 64 64 64 65 65 63 62 57 54 53
49 49 50 50 50 52 50 49 49 49 49 49 51 51 51 51 51 52 51 52 56 56 55 55 54 53 53 53 54 55 55 55 54 55 55 55 56 56 56 56 58 56 57 57 56 57 57 59 59 59 60 59 59 61 61 62 62 63 63 60 60 56 54
49 50 50 50 50 50 50 49 49 48 48 49 49 50 52 50 49 51 51 53 54 55 55 54 54 54 53 53 54 54 54 54 53 53 54 54 54 56 57 56 56 57 57 56 55 56 56 57 57 57 57 58 59 59 58 59 59 60 61 60 60 59 57
49 49 49 49 51 51 49 49 48 49 49 48 49 49 50 50 51 52 53 53 52 54 55 54 54 54 53 53 54 55 55 55 55 53 53 53 53 53 55 56 55 56 57 56 54 54 55 54 55 54 54 55 56 57 57 57 58 60 59 59 58 57 58
48 49 50 50 51 50 49 49 48 49 49 48 48 49 49 49 49 50 51 51 52 54 55 55 54 52 52 52 54 56 55 55 56 55 52 53 53 53 53 55 55 55 56 56 54 53 52 53 53 52 52 52 54 55 55 56 55 58 57 57 56 55 55
48 48 48 48 49 50 49 49 50 50 49 48 48 48 48 49 50 51 51 52 53 55 54 54 54 54 53 53 54 54 55 54 53 53 53 53 54 55 56 55 55 55 55 56 57 54 51 53 52 53 52 52 54 54 53 53 53 55 52 55 48 52 52
47 47 47 48 49 49 51 51 49 49 49 48 48 49 49 49 50 51 52 53 53 54 55 54 53 52 52 54 54 53 52 52 52 52 53 52 53 54 54 55 51 52 54 52 56 53 49 49 51 51 51 52 52 54 52 52 54 52 45 43 42 42 43
47 46 47 48 48 49 49 49 51 50 49 49 51 50 50 50 50 51 51 52 52 52 53 53 53 52 52 54 53 52 52 52 51 52 53 52 52 53 54 53 54 48 47 49 51 48 44 44 44 45 48 54 52 53 51 50 48 45 42 42 42 42 42
47 46 47 48 47 48 49 50 49 48 49 48 50 49 50 50 50 50 50 51 52 52 52 52 52 52 52 53 53 53 52 52 52 52 52 53 53 54 54 53 53 54 49 47 47 46 44 43 43 42 43 45 48 51 54 50 46 43 42 42 42 42 41